星链-5567 (STARLINK-5567 )

导读 | 星芒AI

STARLINK-5567 是 SpaceX Starlink 卫星互联网项目中的一颗低轨卫星,属于“星链”计划的组成部分。该卫星由 SpaceX 研制并发射,旨在为全球用户提供高速互联网服务。它运行在约 550 公里的近地轨道上,采用先进的通信技术,支持宽带数据传输。STARLINK-5567 与其他星链卫星协同工作,构建起覆盖广泛的卫星网络,提升偏远地区的网络接入能力。该计划致力于实现全球互联网覆盖,推动数字连接的普及。

基本信息
目录编号:
55377
目录名称:
STARLINK-5567
国际标识:
2023-013AY
轨道中心:
EARTH
卫星名称:
星链-5567
卫星全名:
星链-5567 (STARLINK-5567 )
卫星状态:
在轨 (已飞行1060 天)
发射日期:
2023-01-26 UTC
国别 :
美国 (US)
星等 :
--
轨道信息
数据来源 国际轨道数据 AOE轨道数据
星历时间 2025-12-21T02:34:55+0800
20小时前
查看轨道信息
2025-12-17T15:00:00+0800
4天前
查看轨道信息
半长轴 6937.252km 6937.211km
偏心率 0.0001311 0.0001662
轨道倾角 43.004° 43.006°
近地点辐角 268.140° 263.491°
升交点赤经 21.683° 40.609°
平近点角 91.929° 317.177°
近地点 558.205km 557.923km
远地点 560.025km 560.229km
周期 95.839分钟 95.838分钟
每日圈数 15.025246 15.025381
详细信息
固有亮度:
5
最大亮度:
2.5
卫星平台:
Starlink v1.5
覆盖范围:
全球
运营商:
太空探索技术公司
运营商所在国:
美国
制造商(研发单位):
太空探索技术公司
制造商所在国:
美国
使用方式:
暂无
卫星简介
星链(Starlink)计划是由太空探索技术公司(SpaceX)提出的一个巨型低轨卫星互联网星座项目,计划在2019年至2024年间在太空搭建由约1.2万颗卫星组成的“星链”网络,其中1584颗将部署在地球上空550千米处的近地轨道,并从2020年开始工作。该卫星仍在工作。
2D轨道图
3D轨道图
轨道高度分析图
轨道倾角分析图
轨道综合分析图
查看轨道综合分析图